EXPRESS-AM7

Last updated on Sun Jun 21 2026 00:03:06 GMT+0000 (Coordinated Universal Time)

1 40505U 15012A 26171.25734353 .00000146 00000+0 00000+0 0 9991 2 40505 0.0181 60.5638 0003019 34.4951 306.0287 1.00272388 41038
UTC large
Height (km)
Speed (km/s)
/
Latitude / Longitude
Inclination (degrees)
Orbital Period (minutes)
Azimuth
Elevation
Range (km)
Doppler Factor

Next 0 passes for location: London (51.5072 / 0.1276)

No passes found over London.
EXPRESS-AM7